Location: Balaclava NSW 2575, Australia
(34.4510°S, 150.4953°E)
Time: 12:45:32
(UTC+10:00)

LightSail 2 - Visible Passes

Search period start: 18 August 2019 00:00
Search period end: 28 August 2019 00:00
Orbit: 702 x 731 km, 24.0° (Epoch: 16 August)

Date Brightness Start Highest point End Pass type
(mag) Time Alt. Az. Time Alt. Az. Time Alt. Az.
23 Aug 7.7 05:56:58 10° N 05:59:08 13° NNE 06:01:20 10° NE visible
25 Aug 7.4 05:47:03 10° NNW 05:50:27 18° NNE 05:53:52 10° NE visible
26 Aug 7.5 04:50:52 10° NNW 04:53:39 14° NNE 04:56:26 10° NE visible
27 Aug 7.7 03:57:04 11° NNE 03:57:04 11° NNE 03:58:29 10° NE visible
27 Aug 7.1 05:37:50 10° NW 05:41:46 22° N 05:45:44 10° ENE visible
